Retour au catalogue

STARLINK-6306

ActifCommunicationsVLEO
NORAD 57242·PAYLOAD·🇺🇸 United States

Lancé Jul 7, 2023 depuis Vandenberg Space Force Base

Loading…

Prochains Passages (prochaines 24 heures)

TLE

FraisSource: CelesTrak SupGP

Époque: Sep 14, 2026, 21:11 UTC

1 57242C 23094AA  26257.88312500  .00038565  00000+0  13964-2 0  2575
2 57242  43.0042  31.6337 0001792 276.1379  35.3491 15.27568717    17

Suivez STARLINK-6306 en temps réel avec AllMySat

Download on the App Store